sat.trackr.live / text

‹ back to catalog

EUTELSAT 174A

NORAD 28924 · 2005-052A

PAYLOAD ACTIVE UNKNOWN

§ Identity

Operator
Country
EUTE
Launch date
2005-12-29
Launch site
TYMSC
Launch vehicle
Mass (kg)
RCS (m²)
5.50

Purposes: comms

External: N2YO · Heavens-Above · Gunter

§ Orbital elements

Epoch: 2026-09-19T17:52:41.483712Z

Period
1,436.05 min
Inclination
4.4515°
Eccentricity
0.0005999
Mean motion
1.00274755 rev/d
Perigee alt
35,760.5 km
Apogee alt
35,811.1 km
Semi-major
42,163.9 km
B*
0.0000e+0
RAAN
75.3028°
Arg perigee
101.9972°
Mean anomaly
263.5456°
Rev number
5,328

§ Raw data

EUTELSAT 174A1 28924U 05052A   26262.74492458  .00000007  00000+0  00000+0 0  99932 28924   4.4515  75.3028 0005999 101.9972 263.5456  1.00274755 53282

JSON: /api/v1/satellites/28924 · /tle

For live sub-satellite position, see the globe view (requires WebGL).

§ Visibility from observer

Set your observer location to see the next 7 days of passes ≥ 10°. The values pass through the URL so the page stays shareable.

No JS? Fill the form by hand. The geolocation button needs JavaScript.